Date String (YYYY-MM-DD hh:mm:ss) UTC,Instrument flags,absolute air pressure of the measurement (hPa),sample flow rate (lpm),inlet stack bypass flow (lpm),air temperature of the measurement (°C),ambient temperature measured by the external sensor (°C),aerosol sample conditioner tube jacket temperature (°C),OPC LED temperature (°C),internal box temperature (°C),relative humidity of the measurement (%),span deviation,mass concentration of particles derived from Lorenz-Mie calculation of OPC scattering (μg/m³),mass concentration of particles derived from Lorenz-Mie calculation of OPC scattering (μg/m³),mass concentration of particles derived from Lorenz-Mie calculation of OPC scattering (μg/m³)
DateTimeUTC,F1_M11,P_M11,Q1_M11,Q2_M11,T1_M11,T2_M11,T3_M11,T4_M11,T5_M11,U1_M11,ZSPAN_M11,X0_M11,X2_M11,X1_M11
2023-11-07 16:00:00,SystemResetWarning,0822.9,5.02,000.00,028.4,024.7,000.0,036.8,029.4,12.0,0000.0,0011.64,0003.70,0002.99
2023-11-07 16:01:00,SystemResetWarning,0823.0,4.98,000.00,028.3,025.1,000.0,036.7,029.3,12.1,0000.0,0011.62,0003.71,0003.01
2023-11-07 16:02:00,SystemResetWarning,0823.1,5.01,000.00,028.2,025.5,000.0,036.7,029.3,12.3,0000.0,0011.88,0003.74,0003.01
2023-11-07 16:03:00,SystemResetWarning,0823.1,5.02,000.00,028.2,025.9,000.0,036.7,029.4,11.3,0000.0,0011.72,0003.77,0003.03
2023-11-07 16:04:00,SystemResetWarning,0823.0,4.99,000.00,028.2,026.2,000.0,036.6,029.5,11.1,0000.0,0011.31,0003.75,0003.04
2023-11-07 16:05:00,SystemResetWarning,0822.8,4.99,000.00,028.2,026.5,000.0,036.6,029.5,11.6,0000.0,0010.28,0003.72,0003.04
2023-11-07 16:06:00,SystemResetWarning,0823.0,5.00,000.00,028.2,026.7,000.0,036.6,029.6,11.6,0000.0,0009.86,0003.77,0003.06
2023-11-07 16:07:00,SystemResetWarning,0823.1,5.01,000.00,028.2,026.9,000.0,036.6,029.6,11.5,0000.0,0008.88,0003.80,0003.10
2023-11-07 16:08:00,SystemResetWarning,0823.0,5.01,000.00,028.2,027.0,000.0,036.6,029.7,11.6,0000.0,0009.16,0003.82,0003.12
2023-11-07 16:09:00,SystemResetWarning,0823.2,5.00,000.00,028.3,027.1,000.0,036.6,029.7,11.7,0000.0,0009.33,0003.85,0003.14
2023-11-07 16:10:00,SystemResetWarning,0823.0,4.99,000.00,028.3,027.2,000.0,036.6,029.8,11.9,0000.0,0009.59,0003.86,0003.16
2023-11-07 16:11:00,SystemResetWarning,0822.8,4.99,000.00,028.3,027.3,000.0,036.6,029.8,11.8,0000.0,0010.06,0003.92,0003.18
2023-11-07 16:12:00,SystemResetWarning,0822.8,5.00,000.00,028.3,027.4,000.0,036.6,029.8,11.7,0000.0,0010.25,0003.98,0003.20
2023-11-07 16:13:00,SystemResetWarning,0822.7,5.01,000.00,028.4,027.5,000.0,036.6,029.9,11.8,0000.0,0010.80,0004.01,0003.22
2023-11-07 16:14:00,SystemResetWarning,0822.8,5.01,000.00,028.4,027.5,000.0,036.6,029.9,11.6,0000.0,0010.96,0004.04,0003.23
2023-11-07 16:15:00,SystemResetWarning,0822.7,5.00,000.00,028.4,027.6,000.0,036.6,030.0,11.7,0000.0,0011.61,0004.08,0003.25
2023-11-07 16:16:00,SystemResetWarning,0822.7,5.00,000.00,028.4,027.6,000.0,036.7,030.0,11.7,0000.0,0011.72,0004.08,0003.26
2023-11-07 16:17:00,SystemResetWarning,0822.8,4.99,000.00,028.5,027.7,000.0,036.7,030.0,11.8,0000.0,0011.64,0004.07,0003.27
2023-11-07 16:18:00,SystemResetWarning,0822.7,5.00,000.00,028.5,027.7,000.0,036.7,030.1,11.5,0000.0,0011.64,0004.10,0003.27
2023-11-07 16:19:00,SystemResetWarning,0822.6,5.00,000.00,028.5,027.8,000.0,036.7,030.1,11.1,0000.0,0012.26,0004.09,0003.28
2023-11-07 16:20:00,SystemResetWarning,0822.6,5.00,000.00,028.6,027.8,000.0,036.7,030.1,11.3,0000.0,0013.31,0004.05,0003.27
2023-11-07 16:21:00,SystemResetWarning,0822.7,4.99,000.00,028.6,027.1,000.0,036.7,030.2,11.4,0000.0,0013.96,0004.04,0003.26
2023-11-07 16:22:00,SystemResetWarning,0822.5,5.00,000.00,028.5,025.3,000.0,036.7,029.9,11.3,0000.0,0013.56,0004.02,0003.26
2023-11-07 16:23:00,SystemResetWarning,0822.8,5.01,000.00,028.4,024.8,000.0,036.7,029.7,10.8,0000.0,0013.52,0004.03,0003.25
2023-11-07 16:24:00,SystemResetWarning,0823.0,5.01,000.00,028.3,025.1,000.0,036.6,029.4,10.4,0000.0,0013.70,0004.02,0003.24
2023-11-07 16:25:00,SystemResetWarning,0822.6,5.00,000.00,028.2,025.4,000.0,036.6,029.3,9.6,0000.0,0013.45,0003.96,0003.23
2023-11-07 16:26:00,SystemResetWarning,0822.5,4.99,000.00,028.2,025.8,000.0,036.6,029.4,9.6,0000.0,0012.71,0003.99,0003.22
2023-11-07 16:27:00,SystemResetWarning,0822.4,5.00,000.00,028.2,026.1,000.0,036.5,029.4,9.9,0000.0,0012.54,0003.98,0003.20
2023-11-07 16:28:00,SystemResetWarning,0822.5,5.01,000.00,028.2,026.4,000.0,036.5,029.5,10.3,0000.0,0012.66,0003.96,0003.19
2023-11-07 16:29:00,SystemResetWarning,0822.5,5.01,000.00,028.2,026.6,000.0,036.5,029.6,10.0,0000.0,0012.88,0003.92,0003.19
2023-11-07 16:30:00,SystemResetWarning,0822.4,5.01,000.00,028.2,026.8,000.0,036.5,029.7,10.0,0000.0,0012.39,0003.92,0003.19
2023-11-07 16:31:00,SystemResetWarning,0822.4,5.00,000.00,028.2,027.0,000.0,036.5,029.7,9.8,0000.0,0011.73,0003.94,0003.18
2023-11-07 16:32:00,SystemResetWarning,0822.4,5.00,000.00,028.2,027.1,000.0,036.5,029.8,9.1,0000.0,0011.14,0003.97,0003.19
2023-11-07 16:33:00,SystemResetWarning,0822.5,4.99,000.00,028.3,027.2,000.0,036.5,029.8,8.5,0000.0,0011.40,0003.96,0003.18
2023-11-07 16:34:00,SystemResetWarning,0823.0,5.01,000.00,028.3,027.4,000.0,036.5,029.8,8.4,0000.0,0011.64,0003.87,0003.16
2023-11-07 16:35:00,SystemResetWarning,0823.0,5.01,000.00,028.3,027.4,000.0,036.5,029.9,8.3,0000.0,0011.44,0003.77,0003.13
2023-11-07 16:36:00,SystemResetWarning,0823.1,5.01,000.00,028.4,027.5,000.0,036.6,029.9,8.3,0000.0,0011.20,0003.76,0003.11
2023-11-07 16:37:00,SystemResetWarning,0822.9,4.99,000.00,028.4,027.6,000.0,036.6,030.0,8.3,0000.0,0011.51,0003.67,0003.08
2023-11-07 16:38:00,SystemResetWarning,0822.5,4.99,000.00,028.4,026.8,000.0,036.6,030.0,8.6,0000.0,0011.64,0003.66,0003.05
2023-11-07 16:39:00,SystemResetWarning,0822.4,5.00,000.00,028.4,025.0,000.0,036.5,029.7,8.6,0000.0,0011.41,0003.61,0003.01
2023-11-07 16:40:00,SystemResetWarning,0822.4,5.00,000.00,028.3,024.4,000.0,036.5,029.5,8.4,0000.0,0011.01,0003.57,0002.95
2023-11-07 16:41:00,SystemResetWarning,0822.5,5.01,000.00,028.2,024.7,000.0,036.4,029.1,8.5,0000.0,0010.51,0003.55,0002.91
2023-11-07 16:42:00,SystemResetWarning,0822.4,5.00,000.00,028.1,025.1,000.0,036.4,029.0,8.4,0000.0,0009.89,0003.50,0002.87
2023-11-07 16:43:00,SystemResetWarning,0822.4,5.00,000.00,028.0,025.5,000.0,036.4,029.2,8.1,0000.0,0009.19,0003.39,0002.81
2023-11-07 16:44:00,SystemResetWarning,0822.4,5.00,000.00,028.0,025.9,000.0,036.4,029.3,8.3,0000.0,0008.64,0003.34,0002.75
2023-11-07 16:45:00,SystemResetWarning,0822.4,5.00,000.00,028.0,026.2,000.0,036.3,029.4,8.5,0000.0,0008.87,0003.31,0002.72
2023-11-07 16:46:00,SystemResetWarning,0822.4,5.00,000.00,028.0,026.4,000.0,036.3,029.4,8.4,0000.0,0008.38,0003.31,0002.71
2023-11-07 16:47:00,SystemResetWarning,0822.3,5.01,000.00,028.0,026.6,000.0,036.3,029.5,8.3,0000.0,0008.29,0003.30,0002.71
2023-11-07 16:48:00,SystemResetWarning,0822.4,5.00,000.00,028.1,026.8,000.0,036.3,029.6,8.2,0000.0,0008.64,0003.29,0002.71
2023-11-07 16:49:00,SystemResetWarning,0822.4,5.00,000.00,028.1,027.0,000.0,036.3,029.6,8.3,0000.0,0008.41,0003.27,0002.70
2023-11-07 16:50:00,SystemResetWarning,0822.4,5.00,000.00,028.1,027.1,000.0,036.4,029.7,8.4,0000.0,0009.45,0003.30,0002.68
2023-11-07 16:51:00,SystemResetWarning,0822.4,5.00,000.00,028.2,027.2,000.0,036.4,029.7,8.7,0000.0,0009.82,0003.29,0002.66
2023-11-07 16:52:00,SystemResetWarning,0822.4,5.00,000.00,028.2,027.3,000.0,036.4,029.8,8.8,0000.0,0009.83,0003.25,0002.64
2023-11-07 16:53:00,SystemResetWarning,0822.4,5.00,000.00,028.2,027.4,000.0,036.4,029.8,8.8,0000.0,0009.93,0003.26,0002.64
2023-11-07 16:54:00,SystemResetWarning,0822.4,5.00,000.00,028.3,027.4,000.0,036.4,029.9,9.1,0000.0,0010.17,0003.33,0002.65
2023-11-07 16:55:00,SystemResetWarning,0822.4,5.00,000.00,028.3,027.5,000.0,036.4,029.9,9.2,0000.0,0011.05,0003.37,0002.69
2023-11-07 16:56:00,SystemResetWarning,0822.5,4.99,000.00,028.3,027.0,000.0,036.5,029.9,8.6,0000.0,0010.65,0003.41,0002.71
2023-11-07 16:57:00,SystemResetWarning,0822.4,5.00,000.00,028.3,025.1,000.0,036.4,029.6,8.9,0000.0,0010.41,0003.43,0002.72
2023-11-07 16:58:00,SystemResetWarning,0822.4,5.00,000.00,028.2,024.3,000.0,036.4,029.4,9.2,0000.0,0010.21,0003.47,0002.71
2023-11-07 16:59:00,SystemResetWarning,0822.4,5.01,000.00,028.1,024.6,000.0,036.3,029.1,9.7,0000.0,0009.99,0003.48,0002.69
